Home   Weather   Langen   Past weeks
Flag for Germany

Past Weather in Langen, Hesse, Germany — Yesterday and Last 2 Weeks

Now
68 °F

Passing clouds.


Feels Like: 68 °F
Forecast: 64 / 55 °F
Wind: 5 mph from Northeast

Location: Frankfurt-M-Flughafen Airport

Current Time: Sep 22, 2019 at 12:14:40 pm

Latest Report: Sep 22, 2019 at 11:50 am


Visibility: N/A

Pressure: 29.89 "Hg

Humidity: 46%

Dew Point: 46 °F

Location of LangenLocation

Past Weather in Langen — Graph

°F

Langen Temperature Yesterday

Maximum temperature yesterday: 75 °F (at 3:20 pm)
Minimum temperature yesterday: 43 °F (at 6:20 am)
Average temperature yesterday: 59 °F

High & Low Weather Summary for the Past Weeks

 TemperatureHumidityPressure
High81 °F (Sep 15, 4:20 pm)100% (Sep 8, 1:50 am)30.51 "Hg (Sep 8, 1:50 am)
Low41 °F (Sep 18, 6:50 am)23% (Sep 21, 2:20 pm)29.89 "Hg (Sep 22, 11:20 am)
Average59 °F68%30.21 "Hg
* Reported Sep 7 11:20 am — Sep 22 11:20 am, Langen. Weather by CustomWeather, © 2019

Note: Actual official high and low records may vary slightly from our data, if they occured in-between our weather recording intervals... More about our weather records

Advertising

Langen Weather History for the Previous 24 Hours

Scroll right to see more
 ConditionsComfort  
Time TempWeatherWind HumidityBarometerVisibility
11:20 am
Sun, Sep 22
66 °FPassing clouds.3 mph49%29.89 "HgN/A
10:50 am63 °FPassing clouds.6 mph52%29.92 "HgN/A
10:20 am63 °FPassing clouds.5 mph52%29.92 "HgN/A
9:50 am61 °FSunny.8 mph55%29.92 "Hg10 mi
9:20 am59 °FSunny.7 mph59%29.92 "Hg10 mi
8:50 am57 °FPassing clouds.8 mph59%29.92 "HgN/A
8:20 am55 °FSunny.10 mph63%29.92 "Hg10 mi
7:50 am54 °FSunny.9 mph67%29.92 "Hg10 mi
7:20 am52 °FSunny.7 mph72%29.92 "Hg10 mi
6:50 am54 °FClear.9 mph67%29.92 "Hg10 mi
6:20 am52 °FClear.5 mph72%29.92 "Hg10 mi
5:50 am54 °FClear.6 mph67%29.92 "Hg10 mi
5:20 am54 °FPassing clouds.8 mph67%29.92 "HgN/A
4:50 am54 °FClear.6 mph67%29.92 "Hg10 mi
4:20 am54 °FPassing clouds.6 mph67%29.92 "HgN/A
3:50 am54 °FPassing clouds.5 mph67%29.92 "HgN/A
3:20 am54 °FClear.5 mph67%29.95 "Hg10 mi
2:50 am54 °FClear.7 mph67%29.95 "Hg10 mi
2:20 am55 °FPassing clouds.6 mph63%29.95 "HgN/A
1:50 am52 °FClear.2 mph67%29.95 "Hg10 mi
1:20 am52 °FClear.5 mph67%29.95 "Hg10 mi
12:50 am54 °FClear.6 mph63%29.95 "Hg10 mi
12:20 am55 °FClear.7 mph59%29.98 "Hg10 mi
11:50 pm
Sat, Sep 21
55 °FClear.6 mph59%29.98 "Hg10 mi
11:20 pm59 °FClear.8 mph51%29.98 "Hg10 mi
10:50 pm63 °FClear.9 mph45%29.98 "Hg10 mi
10:20 pm64 °FClear.8 mph43%29.98 "Hg10 mi
9:50 pm64 °FClear.7 mph43%30.01 "Hg10 mi
9:20 pm61 °FPassing clouds.6 mph48%30.01 "HgN/A
8:50 pm64 °FClear.7 mph43%30.01 "Hg10 mi
8:20 pm68 °FClear.6 mph35%30.01 "Hg10 mi
7:50 pm72 °FClear.6 mph31%30.01 "Hg10 mi
7:20 pm73 °FSunny.5 mph29%30.01 "Hg10 mi
6:50 pm73 °FPassing clouds.7 mph29%30.01 "HgN/A
6:20 pm75 °FPassing clouds.8 mph25%30.01 "HgN/A
5:50 pm75 °FSunny.10 mph25%30.01 "Hg10 mi
5:20 pm75 °FPassing clouds.10 mph25%30.04 "HgN/A
4:50 pm75 °FPassing clouds.12 mph25%30.04 "HgN/A
4:20 pm75 °FPassing clouds.13 mph25%30.04 "HgN/A
3:50 pm75 °FPassing clouds.10 mph25%30.07 "HgN/A
3:20 pm75 °FPassing clouds.13 mph25%30.07 "HgN/A
2:50 pm73 °FPassing clouds.13 mph25%30.09 "HgN/A
2:20 pm73 °FPassing clouds.15 mph23%30.09 "HgN/A
1:50 pm72 °FPassing clouds.13 mph25%30.12 "HgN/A
1:20 pm72 °FPassing clouds.12 mph27%30.12 "HgN/A
12:50 pm68 °FPassing clouds.14 mph30%30.15 "HgN/A
12:20 pm66 °FSunny.10 mph35%30.15 "Hg10 mi
Weather by CustomWeather, © 2019

See weather overview